Regional Weather Roundup
Issued by NWS Kansas City/Pleasant Hill, MO

Home | Current Version | Previous Version | Text Only | Print | Product List | Glossary On
Versions: 1 2 3 4 5 6 7 8 9 10 11 12 13 14 15 16 17 18 19 20 21 22 23 24 25 26 27 28 29 30 31 32 33 34 35 36 37 38 39 40 41 42 43 44 45 46 47 48 49 50
687
ASUS43 KEAX 290010
RWREAX

WEATHER ROUNDUP FOR EASTERN KANSAS AND NORTHWEST MISSOURI
NATIONAL WEATHER SERVICE KANSAS CITY/PLEASANT HILL MO
700 PM CDT THU APR 28 2016

KSZ040-057-103>105-MOZ028-029-037-043-290100-
...KANSAS CITY METROPOLITAN AREA...

CITY           SKY/WX    TMP DP  RH WIND       PRES   REMARKS
K.C. INTL      CLOUDY    55  45  68 N6        30.01S
6HR MIN TEMP:  53; 6HR MAX TEMP:  56;

K.C. DOWNTOWN  PTSUNNY   58  45  62 NW8       30.00R
6HR MIN TEMP:  57; 6HR MAX TEMP:  62;

LEES SUMMIT    SUNNY     58  47  66 NW9       30.00R
6HR MIN TEMP:  58; 6HR MAX TEMP:  63;

OLATHE - IXD   SUNNY     59  48  67 N12       30.01R
6HR MIN TEMP:  57; 6HR MAX TEMP:  62;

OLATHE - OJC   MOSUNNY   59  46  62 N9        30.00R
6HR MIN TEMP:  57; 6HR MAX TEMP:  63;

LAWRENCE       SUNNY     59  47  64 N10       30.00R

$$

MOZ001>008-011>017-020>025-030>033-038>040-044>046-053-054-290100-
...NORTHERN AND CENTRAL MISSOURI...

CITY           SKY/WX    TMP DP  RH WIND       PRES   REMARKS
ST. JOSEPH     CLOUDY    54  45  71 NW8       30.01R
6HR MIN TEMP:  52; 6HR MAX TEMP:  56;

MOSBY          CLOUDY    55  46  71 W5        30.01S
WARRENSBURG    SUNNY     59  46  63 NW8       30.00R
WHITEMAN AFB   MOSUNNY   60  51  72 N10       29.99R
6HR MIN TEMP:  59; 6HR MAX TEMP:  66;

CLINTON        SUNNY     66  50  55 W6        29.99R
SEDALIA        SUNNY     62  51  67 N12       30.00R
6HR MIN TEMP:  59; 6HR MAX TEMP:  66;

WARSAW         NOT AVBL
CHILLICOTHE      N/A     56  46  69 NW6       30.02R
6HR MIN TEMP:  55; 6HR MAX TEMP:  58;

KIRKSVILLE     CLOUDY    56  45  66 W6        29.99R
6HR MIN TEMP:  55; 6HR MAX TEMP:  60; 6HR PCP: TRACE;


$$

MOZ041-047>049-056>058-063>065-088>090-097-290100-
...EASTERN AND SOUTHERN MISSOURI...

CITY           SKY/WX    TMP DP  RH WIND       PRES   REMARKS
ST. LOUIS INTL PTCLDY    68  50  52 NW13      29.95R
6HR MIN TEMP:  68; 6HR MAX TEMP:  74;

SPIRIT OF STL  PTCLDY    67  54  63 N10       29.95R
COLUMBIA       MOSUNNY   62  49  62 NW12      29.99R
JEFFERSON CITY SUNNY     65  49  56 NW8       29.97R
ROLLA          CLEAR     68  46  45 W9        29.95R
OSAGE BEACH    SUNNY     68  45  42 NW6       29.98R
SPRINGFIELD    SUNNY     69  46  43 NW3       29.97S
BRANSON        MOSUNNY   73  41  31 NW3       29.97F
JOPLIN         SUNNY     68  50  52 N6        29.97F
WEST PLAINS    CLEAR     75  40  28 NW7       29.97R

$$

IAZ060-094-KSZ022-034>040-054-083-096-NEZ052-066-093-290100-
...KANSAS...SOUTHEAST NEBRASKA AND IOWA...

CITY           SKY/WX    TMP DP  RH WIND       PRES   REMARKS
TOPEKA         SUNNY     59  46  62 N9        30.00R
6HR MIN TEMP:  56; 6HR MAX TEMP:  63;

MANHATTAN      PTSUNNY   59  44  57 NE7       29.99S
EMPORIA        PTSUNNY   62  47  57 NE8       29.97S
CHANUTE        MOSUNNY   67  49  52 NE6       29.97S
WICHITA        PTSUNNY   66  47  50 NE12      29.93S
OMAHA          CLOUDY    50  42  74 N13       30.02F
LINCOLN        CLOUDY    51  41  68 N14       30.02R
FALLS CITY     CLOUDY    53  43  68 N7        30.01R
LAMONI         PTSUNNY   53  45  74 NW15      29.98R
DES MOINES     DRIZZLE   51  47  86 NW13      29.98R FOG

$$





USA.gov is the U.S. government's official web portal to all federal, state and local government web resources and services.